カタログに戻る

STARLINK-30985

運用中通信VLEO
NORAD 58493·PAYLOAD·🇺🇸 United States

打ち上げ Dec 3, 2023 から Cape Canaveral Space Force Station

Loading…

次のパス (今後24時間)

TLE

最新Source: CelesTrak SupGP

元期: Sep 14, 2026, 21:30 UTC

1 58493C 23186W   26257.89631944  .00051561  00000+0  18675-2 0  2578
2 58493  43.0039  74.8824 0001776 271.0332 157.4752 15.27553475    18

AllMySatでSTARLINK-30985をリアルタイム追跡

Download on the App Store